Powrót do katalogu

STARLINK-34869

AktywnyŁącznośćVLEO
NORAD 65371·PAYLOAD·🇺🇸 United States

Wystrzelony Aug 28, 2025 z Cape Canaveral Space Force Station

Loading…

Następne Przeloty (najbliższe 24 godziny)

TLE

ŚwieżeSource: CelesTrak SupGP

Epoka: Sep 14, 2026, 21:48 UTC

1 65371C 25190W   26257.90881944  .00005111  00000+0  15103-3 0  2571
2 65371  53.1585   7.7428 0001194  91.1463  35.5029 15.34380724    10

Śledź STARLINK-34869 w czasie rzeczywistym z AllMySat

Download on the App Store